Regional Weather Roundup
Issued by NWS

Home | Current Version | Previous Version | Text Only | Print | Product List | Glossary On
Versions: 1 2 3 4 5 6 7 8 9 10 11 12 13 14 15 16 17 18 19 20 21 22 23 24 25 26 27 28 29 30 31 32 33 34 35 36 37 38 39 40 41 42 43 44 45 46 47 48 49 50
000
ASUS44 KJAN 182210
RWRMS

MISSISSIPPI HOURLY WEATHER ROUNDUP
NATIONAL WEATHER SERVICE JACKSON MS
400 PM CST THU DEC 18 2014

NOTE: "FAIR: INDICATES FEW OR NO CLOUDS BELOW 12,000 FEET WITH NO
SIGNIFICANT WEATHER AND/OR OBSTRUCTIONS TO VISIBILITY.

MSZ001>002-007>008-010>013-018>021-025>028-034>036-182300-
NORTHWEST MISSISSIPPI

CITY           SKY/WX    TMP DP  RH WIND       PRES   REMARKS
CLARKSDALE     CLOUDY    46  41  81 CALM      30.19S
CLEVELAND      CLOUDY    49  45  85 CALM      30.16S
GREENWOOD      CLOUDY    52  42  69 CALM      30.16S
GREENVILLE     CLOUDY    51  43  74 CALM      30.16R
GRENADA        FAIR      50  39  66 CALM      30.16F
OLIVE BRANCH   CLOUDY    43  37  81 CALM      30.18S
OXFORD         CLOUDY    45  37  76 NE5       30.18S
TUNICA         CLOUDY    45  39  81 N6        30.19S
$$

MSZ003>006-009-014>017-022>024-029>033-037>039-182300-
NORTHEAST MISSISSIPPI

CITY           SKY/WX    TMP DP  RH WIND       PRES   REMARKS
COLUMBUS AFB   CLOUDY    49  33  53 CALM      30.17F
CORINTH        CLOUDY    46  34  61 CALM      30.17S
GOLDN TRIANGLE CLOUDY    50  30  46 NE5       30.16S
STARKVILLE     CLOUDY    50  32  50 CALM      30.15F
TUPELO         CLOUDY    47  35  63 NE3       30.18R
$$

MSZ040-058-182300-
CENTRAL MISSISSIPPI

CITY           SKY/WX    TMP DP  RH WIND       PRES   REMARKS
JACKSON INTL   CLOUDY    51  45  79 SE5       30.15S
JACKSON HAWKNS MOCLDY    51  44  77 SE6       30.14F
MERIDIAN KEY   CLOUDY    51  39  63 W3        30.17R
MERIDIAN NAS   CLOUDY    51  36  56 N3        30.17R
RAYMOND        MOCLDY    52  46  82 SE3       30.14F
VICKSBURG      CLOUDY    54  44  69 SE7       30.14S
$$

MSZ059>079-182300-
SOUTH MISSISSIPPI

CITY           SKY/WX    TMP DP  RH WIND       PRES   REMARKS
HATTIESBURG    LGT RAIN  56  45  66 N13       30.16R
MCCOMB         LGT RAIN  50  48  93 E6        30.12F FOG
NATCHEZ        CLOUDY    50  46  87 E5        30.13S
PINE BELT      CLOUDY    48  45  87 NE6       30.17R
$$

MSZ080>082-182300-
COASTAL MISSISSIPPI

CITY           SKY/WX    TMP DP  RH WIND       PRES   REMARKS
BAY ST LOUIS   PTSUNNY   59  46  63 SE5       30.12S
BILOXI         PTCLDY    58  49  72 S6        30.12S
PASCAGOULA     MOCLDY    62  46  55 S5        30.13R
GULFPORT       PTSUNNY   59  49  69 SE8       30.11S
$$


USA.gov is the U.S. government's official web portal to all federal, state and local government web resources and services.